Regional Weather Roundup
Issued by NWS

Home | Current Version | Previous Version | Text Only | Print | Product List | Glossary Off
Versions: 1 2 3 4 5 6 7 8 9 10 11 12 13 14 15 16 17 18 19 20 21 22 23 24 25 26 27 28 29 30 31 32 33 34 35 36 37 38 39 40 41 42 43 44 45 46 47 48 49 50

000
ASUS45 KCYS 031310
RWRWY

WYOMING REGIONAL WEATHER ROUNDUP
NATIONAL WEATHER SERVICE CHEYENNE WY
700 AM MDT SUN MAY 03 2015

NOTE:  "FAIR" INDICATES FEW OR NO CLOUDS BELOW 12,000 FEET
WITH NO SIGNIFICANT WEATHER AND/OR OBSTRUCTIONS TO VISIBILITY.

WYZ001-031400-
YELLOWSTONE NATIONAL PARK

CITY           SKY/WX    TMP DP  RH WIND       PRES   REMARKS
LK YELLOWSTONE   N/A     28  23  81 CALM      30.04R
W YELLOWSTONE  NOT AVBL

$$
WYZ002>013-054>058-071-098>099-031400-
NORTHERN WYOMING

CITY           SKY/WX    TMP DP  RH WIND       PRES   REMARKS
JACKSON        NOT AVBL
CODY           FAIR      43  34  70 NE6       30.00R
GREYBULL       FAIR      48  34  58 NW12      29.94R
WORLAND        FAIR      50  34  54 NW3       29.95R
SHERIDAN       FAIR      45  38  76 NW9       30.00R
BUFFALO        FAIR      49  36  61 N3        30.00R
GILLETTE       FAIR      47  37  68 N5        29.97R
HULETT         FAIR      50  34  53 E10       29.96F
NEWCASTLE      FAIR      54  28  37 NE22G29   29.88R

$$
WYZ014>020-022>026-101>103-031400-
CENTRAL WYOMING

CITY           SKY/WX    TMP DP  RH WIND       PRES   REMARKS
BIG PINEY      MOCLDY    34  29  82 CALM      30.04R
PINEDALE       FAIR      34  32  93 CALM      30.05R
DUBOIS         PTSUNNY   41  28  60 NW8       30.00R
LANDER         FAIR      51  32  48 W8        29.95R
RIVERTON       FAIR      50  29  44 NE10      29.94R
CASPER         FAIR      45  32  60 VRB3      30.00R
DOUGLAS        FAIR      48  34  58 NW12      29.96R

$$
WYZ021-027>030-104>119-031400-
SOUTHERN WYOMING

CITY           SKY/WX    TMP DP  RH WIND       PRES   REMARKS
EVANSTON       LGT RAIN  49  36  61 W10       30.07R
KEMMERER       RAIN      50  34  53 SW13G21   30.06R
FORT BRIDGER   CLOUDY    50  34  53 W8        30.07R
ROCK SPRINGS   MOCLDY    46  38  73 S10       30.02S
DIXON          CLOUDY    45  36  70 E3        30.05R
RAWLINS        CLOUDY    53  33  46 W14       30.02R
SARATOGA       FAIR      43  34  70 SE6       30.04R
LARAMIE        FAIR      44  31  60 N9        30.01R
CHEYENNE       FAIR      53  33  46 W17       29.95R
TORRINGTON     FAIR      52  41  66 E5        29.86R
PINE BLUFFS    FAIR      45  41  87 CALM      29.93R

$$


USA.gov is the U.S. government's official web portal to all federal, state and local government web resources and services.